• In Belarus
  • List of Countries
  • For 7 days
  • Water Temperature
  • Satellite Maps
  • Weather Map
  • Weather Widgets
  • user-avatar
    Login

    Hourly Weather Chhatarpur

    Today, 22 September, Saturday

    Time Temperature Precipitation Wind Pressure Humidity
    00:00 +26°C° 0.1 mm 6 mps 727 mmHg 90%
    01:00 +26°C° 0.1 mm 6 mps 726 mmHg 90%
    02:00 +26°C° 0.1 mm 6 mps 726 mmHg 90%
    03:00 +26°C° 0.6 mm 6 mps 726 mmHg 91%
    04:00 +26°C° 0.6 mm 6 mps 727 mmHg 91%
    05:00 +26°C° 0.6 mm 5 mps 727 mmHg 91%
    06:00 +26°C° 0.1 mm 6 mps 727 mmHg 89%
    07:00 +27°C° 0.1 mm 6 mps 728 mmHg 86%
    08:00 +28°C° 0.1 mm 7 mps 728 mmHg 83%
    09:00 +28°C° 0.1 mm 7 mps 728 mmHg 80%
    10:00 +29°C° 0.1 mm 7 mps 728 mmHg 77%
    11:00 +30°C° 0.1 mm 7 mps 728 mmHg 73%
    12:00 +30°C° 0.6 mm 7 mps 728 mmHg 72%
    13:00 +32°C° 0.6 mm 7 mps 727 mmHg 71%
    14:00 +32°C° 0.6 mm 8 mps 727 mmHg 70%
    15:00 +30°C° 0.2 mm 7 mps 727 mmHg 73%
    16:00 +30°C° 0.2 mm 6 mps 727 mmHg 75%
    17:00 +29°C° 0.2 mm 5 mps 727 mmHg 78%
    18:00 +28°C° 0 mm 5 mps 728 mmHg 79%
    19:00 +28°C° 0 mm 5 mps 728 mmHg 80%
    20:00 +27°C° 0 mm 5 mps 729 mmHg 80%
    21:00 +27°C° 0 mm 5 mps 729 mmHg 81%
    22:00 +27°C° 0 mm 5 mps 729 mmHg 81%
    23:00 +27°C° 0 mm 5 mps 729 mmHg 82%

    Tomorrow, 23 September, Sunday

    Time Temperature Precipitation Wind Pressure Humidity
    00:00 +26°C° 0 mm 5 mps 729 mmHg 82%
    01:00 +26°C° 0 mm 5 mps 729 mmHg 82%
    02:00 +26°C° 0 mm 5 mps 729 mmHg 82%
    03:00 +26°C° 0 mm 5 mps 729 mmHg 82%
    04:00 +26°C° 0 mm 5 mps 729 mmHg 83%
    05:00 +25°C° 0 mm 5 mps 729 mmHg 83%
    06:00 +26°C° 0 mm 5 mps 730 mmHg 80%
    07:00 +27°C° 0 mm 6 mps 730 mmHg 77%
    08:00 +28°C° 0 mm 6 mps 731 mmHg 74%
    09:00 +29°C° 0 mm 7 mps 731 mmHg 70%
    10:00 +32°C° 0 mm 7 mps 731 mmHg 65%
    11:00 +33°C° 0 mm 7 mps 731 mmHg 60%
    12:00 +33°C° 0 mm 7 mps 730 mmHg 59%
    13:00 +33°C° 0 mm 6 mps 730 mmHg 58%
    14:00 +34°C° 0 mm 6 mps 729 mmHg 57%
    15:00 +33°C° 0.1 mm 5 mps 729 mmHg 62%
    16:00 +32°C° 0.1 mm 5 mps 729 mmHg 67%
    17:00 +30°C° 0.1 mm 4 mps 729 mmHg 72%
    18:00 +29°C° 0 mm 4 mps 730 mmHg 74%
    19:00 +28°C° 0 mm 3 mps 730 mmHg 77%
    20:00 +27°C° 0 mm 3 mps 731 mmHg 80%
    21:00 +27°C° 0 mm 3 mps 731 mmHg 80%
    22:00 +26°C° 0 mm 3 mps 731 mmHg 80%
    23:00 +26°C° 0 mm 3 mps 731 mmHg 81%

    Day after tomorrow, 24 September, Monday

    Time Temperature Precipitation Wind Pressure Humidity
    00:00 +26°C° 0 mm 3 mps 730 mmHg 81%
    01:00 +25°C° 0 mm 3 mps 730 mmHg 81%
    02:00 +25°C° 0 mm 3 mps 730 mmHg 81%
    03:00 +25°C° 0 mm 3 mps 730 mmHg 80%
    04:00 +25°C° 0 mm 3 mps 730 mmHg 80%
    05:00 +25°C° 0 mm 4 mps 730 mmHg 80%
    06:00 +26°C° 0 mm 4 mps 730 mmHg 78%
    07:00 +27°C° 0 mm 5 mps 731 mmHg 75%
    08:00 +28°C° 0 mm 6 mps 731 mmHg 73%
    09:00 +29°C° 0 mm 6 mps 731 mmHg 69%
    10:00 +32°C° 0 mm 6 mps 731 mmHg 65%
    11:00 +33°C° 0 mm 6 mps 731 mmHg 62%
    12:00 +33°C° 0 mm 6 mps 730 mmHg 61%
    13:00 +34°C° 0 mm 6 mps 730 mmHg 59%
    14:00 +34°C° 0 mm 6 mps 729 mmHg 58%
    15:00 +33°C° 0.1 mm 5 mps 729 mmHg 62%
    16:00 +32°C° 0.1 mm 4 mps 729 mmHg 67%
    17:00 +32°C° 0.1 mm 4 mps 728 mmHg 71%
    18:00 +30°C° 0 mm 4 mps 729 mmHg 73%
    19:00 +29°C° 0 mm 3 mps 729 mmHg 75%
    20:00 +28°C° 0 mm 3 mps 730 mmHg 77%
    21:00 +28°C° 0 mm 4 mps 730 mmHg 77%
    22:00 +27°C° 0 mm 4 mps 730 mmHg 77%
    23:00 +27°C° 0 mm 4 mps 730 mmHg 77%

    25 September, Tuesday

    Time Temperature Precipitation Wind Pressure Humidity
    00:00 +27°C° 0 mm 4 mps 729 mmHg 78%
    01:00 +27°C° 0 mm 4 mps 729 mmHg 78%
    02:00 +26°C° 0 mm 4 mps 728 mmHg 78%
    03:00 +26°C° 0 mm 4 mps 729 mmHg 79%
    04:00 +26°C° 0 mm 4 mps 729 mmHg 80%
    05:00 +26°C° 0 mm 4 mps 729 mmHg 81%
    06:00 +27°C° 0 mm 4 mps 730 mmHg 79%
    07:00 +28°C° 0 mm 5 mps 730 mmHg 77%
    08:00 +29°C° 0 mm 5 mps 731 mmHg 74%
    09:00 +30°C° 0 mm 5 mps 731 mmHg 68%
    10:00 +33°C° 0 mm 5 mps 731 mmHg 62%
    11:00 +34°C° 0 mm 5 mps 731 mmHg 56%
    12:00 +35°C° 0 mm 5 mps 730 mmHg 53%
    13:00 +35°C° 0 mm 5 mps 729 mmHg 50%
    14:00 +36°C° 0 mm 5 mps 729 mmHg 47%
    15:00 +35°C° 0 mm 5 mps 728 mmHg 52%
    16:00 +34°C° 0 mm 4 mps 728 mmHg 57%
    17:00 +33°C° 0 mm 3 mps 728 mmHg 61%
    18:00 +31°C° 0 mm 3 mps 728 mmHg 63%
    19:00 +30°C° 0 mm 3 mps 729 mmHg 66%
    20:00 +29°C° 0 mm 3 mps 729 mmHg 68%
    21:00 +29°C° 0 mm 3 mps 729 mmHg 68%
    22:00 +28°C° 0 mm 3 mps 729 mmHg 69%
    23:00 +28°C° 0 mm 4 mps 729 mmHg 69%

    26 September, Wednesday

    Time Temperature Precipitation Wind Pressure Humidity
    00:00 +28°C° 0 mm 3 mps 728 mmHg 71%
    01:00 +27°C° 0 mm 3 mps 728 mmHg 72%
    02:00 +27°C° 0 mm 3 mps 728 mmHg 74%
    03:00 +26°C° 0 mm 3 mps 728 mmHg 75%
    04:00 +26°C° 0 mm 3 mps 728 mmHg 76%
    05:00 +26°C° 0 mm 3 mps 728 mmHg 77%
    06:00 +27°C° 0 mm 3 mps 729 mmHg 75%
    07:00 +28°C° 0 mm 3 mps 730 mmHg 72%
    08:00 +29°C° 0 mm 3 mps 730 mmHg 69%
    09:00 +30°C° 0 mm 4 mps 730 mmHg 63%
    10:00 +33°C° 0 mm 4 mps 730 mmHg 57%
    11:00 +34°C° 0 mm 4 mps 730 mmHg 50%
    12:00 +35°C° 0 mm 5 mps 730 mmHg 48%
    13:00 +36°C° 0 mm 5 mps 729 mmHg 45%
    14:00 +36°C° 0 mm 5 mps 728 mmHg 42%
    15:00 +35°C° 0 mm 4 mps 728 mmHg 46%
    16:00 +34°C° 0 mm 3 mps 728 mmHg 51%
    17:00 +32°C° 0 mm 2 mps 728 mmHg 55%
    18:00 +31°C° 0 mm 2 mps 728 mmHg 57%
    19:00 +30°C° 0 mm 2 mps 729 mmHg 59%
    20:00 +29°C° 0 mm 2 mps 729 mmHg 61%
    21:00 +29°C° 0 mm 2 mps 729 mmHg 63%
    22:00 +28°C° 0 mm 3 mps 729 mmHg 65%
    23:00 +28°C° 0 mm 3 mps 729 mmHg 67%

    27 September, Thursday

    Time Temperature Precipitation Wind Pressure Humidity
    00:00 +27°C° 0 mm 3 mps 729 mmHg 67%
    01:00 +27°C° 0 mm 3 mps 729 mmHg 67%
    02:00 +27°C° 0 mm 3 mps 728 mmHg 67%
    03:00 +26°C° 0 mm 3 mps 728 mmHg 67%
    04:00 +26°C° 0 mm 3 mps 729 mmHg 66%
    05:00 +26°C° 0 mm 3 mps 729 mmHg 66%
    06:00 +27°C° 0 mm 3 mps 729 mmHg 64%
    07:00 +28°C° 0 mm 3 mps 730 mmHg 62%
    08:00 +29°C° 0 mm 4 mps 731 mmHg 61%
    09:00 +32°C° 0 mm 4 mps 731 mmHg 54%
    10:00 +34°C° 0 mm 4 mps 731 mmHg 48%
    11:00 +35°C° 0 mm 4 mps 731 mmHg 42%
    12:00 +36°C° 0 mm 5 mps 730 mmHg 39%
    13:00 +36°C° 0 mm 5 mps 729 mmHg 37%
    14:00 +37°C° 0 mm 5 mps 729 mmHg 34%
    15:00 +36°C° 0 mm 4 mps 729 mmHg 39%
    16:00 +34°C° 0 mm 3 mps 729 mmHg 44%
    17:00 +33°C° 0 mm 3 mps 729 mmHg 49%
    18:00 +31°C° 0 mm 3 mps 729 mmHg 51%
    19:00 +30°C° 0 mm 3 mps 730 mmHg 52%
    20:00 +29°C° 0 mm 3 mps 730 mmHg 54%
    21:00 +28°C° 0 mm 3 mps 730 mmHg 55%
    22:00 +28°C° 0 mm 3 mps 730 mmHg 56%
    23:00 +27°C° 0 mm 3 mps 730 mmHg 58%
    Show more